When you browse on this site, cookies collect data to enhance your experience and personalize the content and advertising you see.
Visit our Privacy Policy to learn more. By continuing to use the site, you agree to this use of cookies and data.
  • In Hungary
  • List of Countries
  • For 7 days
  • Water Temperature
  • Weather Map
  • News
  • Weather Widgets
  • user-avatar
    Login

    Hourly Weather Baginub

    Today, 16 October, Wednesday

    Time Temperature Precipitation Wind Pressure Humidity
    00:00 +10°C° 0 mm 1 mps 605 mmHg 41%
    01:00 +9°C° 0 mm 1 mps 605 mmHg 40%
    02:00 +9°C° 0 mm 1 mps 605 mmHg 39%
    03:00 +9°C° 0 mm 1 mps 605 mmHg 39%
    04:00 +9°C° 0 mm 1 mps 605 mmHg 38%
    05:00 +9°C° 0 mm 1 mps 605 mmHg 37%
    06:00 +8°C° 0 mm 1 mps 605 mmHg 36%
    07:00 +11°C° 0 mm 1 mps 606 mmHg 33%
    08:00 +13°C° 0 mm 1 mps 607 mmHg 30%
    09:00 +14°C° 0 mm 0 mps 608 mmHg 27%
    10:00 +16°C° 0 mm 1 mps 608 mmHg 27%
    11:00 +18°C° 0 mm 1 mps 608 mmHg 27%
    12:00 +17°C° 0 mm 2 mps 609 mmHg 27%
    13:00 +17°C° 0 mm 2 mps 608 mmHg 30%
    14:00 +17°C° 0 mm 2 mps 608 mmHg 32%
    15:00 +17°C° 0 mm 2 mps 608 mmHg 34%
    16:00 +14°C° 0 mm 1 mps 607 mmHg 43%
    17:00 +12°C° 0 mm 1 mps 606 mmHg 51%
    18:00 +9°C° 0 mm 0 mps 606 mmHg 60%
    19:00 +9°C° 0 mm 0 mps 606 mmHg 60%
    20:00 +10°C° 0 mm 1 mps 606 mmHg 61%
    21:00 +9°C° 0 mm 1 mps 606 mmHg 61%
    22:00 +9°C° 0 mm 1 mps 606 mmHg 60%
    23:00 +9°C° 0 mm 1 mps 606 mmHg 58%

    Tomorrow, 17 October, Thursday

    Time Temperature Precipitation Wind Pressure Humidity
    00:00 +8°C° 0 mm 2 mps 606 mmHg 57%
    01:00 +8°C° 0 mm 2 mps 606 mmHg 53%
    02:00 +7°C° 0 mm 2 mps 606 mmHg 49%
    03:00 +7°C° 0 mm 2 mps 606 mmHg 45%
    04:00 +7°C° 0 mm 2 mps 606 mmHg 42%
    05:00 +7°C° 0 mm 2 mps 606 mmHg 40%
    06:00 +7°C° 0 mm 2 mps 606 mmHg 37%
    07:00 +9°C° 0 mm 2 mps 607 mmHg 35%
    08:00 +12°C° 0 mm 1 mps 608 mmHg 33%
    09:00 +14°C° 0 mm 1 mps 609 mmHg 31%
    10:00 +15°C° 0 mm 1 mps 609 mmHg 31%
    11:00 +16°C° 0 mm 2 mps 609 mmHg 31%
    12:00 +17°C° 0 mm 2 mps 609 mmHg 31%
    13:00 +17°C° 0 mm 2 mps 609 mmHg 33%
    14:00 +16°C° 0 mm 2 mps 609 mmHg 35%
    15:00 +16°C° 0 mm 2 mps 609 mmHg 37%
    16:00 +14°C° 0 mm 2 mps 608 mmHg 45%
    17:00 +12°C° 0 mm 2 mps 607 mmHg 53%
    18:00 +9°C° 0 mm 2 mps 606 mmHg 61%
    19:00 +9°C° 0 mm 2 mps 606 mmHg 57%
    20:00 +9°C° 0 mm 2 mps 606 mmHg 52%
    21:00 +8°C° 0 mm 2 mps 606 mmHg 47%
    22:00 +8°C° 0 mm 3 mps 605 mmHg 46%
    23:00 +8°C° 0 mm 3 mps 605 mmHg 44%

    Day after tomorrow, 18 October, Friday

    Time Temperature Precipitation Wind Pressure Humidity
    00:00 +8°C° 0 mm 3 mps 605 mmHg 43%
    01:00 +8°C° 0 mm 3 mps 605 mmHg 44%
    02:00 +8°C° 0 mm 3 mps 604 mmHg 45%
    03:00 +8°C° 0 mm 3 mps 604 mmHg 47%
    04:00 +8°C° 0 mm 2 mps 604 mmHg 49%
    05:00 +8°C° 0 mm 2 mps 604 mmHg 52%
    06:00 +8°C° 0 mm 2 mps 604 mmHg 55%
    07:00 +11°C° 0 mm 1 mps 605 mmHg 50%
    08:00 +13°C° 0 mm 1 mps 606 mmHg 44%
    09:00 +15°C° 0 mm 0 mps 607 mmHg 39%
    10:00 +16°C° 0 mm 1 mps 607 mmHg 37%
    11:00 +18°C° 0 mm 1 mps 607 mmHg 35%
    12:00 +18°C° 0 mm 2 mps 607 mmHg 33%
    13:00 +18°C° 0 mm 2 mps 607 mmHg 34%
    14:00 +17°C° 0 mm 2 mps 607 mmHg 34%
    15:00 +17°C° 0 mm 2 mps 606 mmHg 35%
    16:00 +15°C° 0 mm 1 mps 606 mmHg 43%
    17:00 +13°C° 0 mm 1 mps 605 mmHg 51%
    18:00 +10°C° 0 mm 0 mps 604 mmHg 58%
    19:00 +10°C° 0 mm 0 mps 604 mmHg 59%
    20:00 +9°C° 0 mm 0 mps 604 mmHg 59%
    21:00 +10°C° 0 mm 1 mps 604 mmHg 59%
    22:00 +10°C° 0 mm 1 mps 604 mmHg 59%
    23:00 +10°C° 0 mm 1 mps 604 mmHg 59%

    19 October, Saturday

    Time Temperature Precipitation Wind Pressure Humidity
    00:00 +10°C° 0 mm 1 mps 604 mmHg 59%
    01:00 +9°C° 0 mm 1 mps 604 mmHg 60%
    02:00 +9°C° 0 mm 1 mps 603 mmHg 60%
    03:00 +8°C° 0 mm 2 mps 603 mmHg 60%
    04:00 +8°C° 0 mm 2 mps 603 mmHg 61%
    05:00 +8°C° 0 mm 2 mps 603 mmHg 61%
    06:00 +8°C° 0 mm 1 mps 604 mmHg 62%
    07:00 +10°C° 0 mm 1 mps 605 mmHg 56%
    08:00 +12°C° 0 mm 1 mps 606 mmHg 51%
    09:00 +13°C° 0 mm 0 mps 606 mmHg 45%
    10:00 +15°C° 0.1 mm 1 mps 607 mmHg 44%
    11:00 +15°C° 0.1 mm 1 mps 607 mmHg 43%
    12:00 +16°C° 0.1 mm 2 mps 607 mmHg 42%
    13:00 +16°C° 0.2 mm 2 mps 607 mmHg 44%
    14:00 +15°C° 0.2 mm 2 mps 606 mmHg 47%
    15:00 +15°C° 0.2 mm 2 mps 606 mmHg 49%
    16:00 +13°C° 0.1 mm 1 mps 606 mmHg 57%
    17:00 +12°C° 0.1 mm 1 mps 605 mmHg 65%
    18:00 +9°C° 0.1 mm 0 mps 605 mmHg 72%
    19:00 +9°C° 0 mm 0 mps 605 mmHg 73%
    20:00 +9°C° 0 mm 0 mps 605 mmHg 73%
    21:00 +8°C° 0 mm 0 mps 605 mmHg 74%
    22:00 +8°C° 0 mm 0 mps 605 mmHg 74%
    23:00 +9°C° 0 mm 1 mps 605 mmHg 75%

    20 October, Sunday

    Time Temperature Precipitation Wind Pressure Humidity
    00:00 +8°C° 0 mm 1 mps 605 mmHg 76%
    01:00 +8°C° 0 mm 1 mps 604 mmHg 76%
    02:00 +8°C° 0 mm 1 mps 604 mmHg 76%
    03:00 +8°C° 0 mm 1 mps 604 mmHg 77%
    04:00 +8°C° 0 mm 1 mps 604 mmHg 77%
    05:00 +7°C° 0 mm 0 mps 605 mmHg 77%
    06:00 +7°C° 0 mm 0 mps 605 mmHg 76%
    07:00 +8°C° 0 mm 0 mps 605 mmHg 71%
    08:00 +10°C° 0 mm 1 mps 606 mmHg 66%
    09:00 +12°C° 0 mm 1 mps 607 mmHg 61%
    10:00 +12°C° 0 mm 1 mps 607 mmHg 60%
    11:00 +13°C° 0 mm 2 mps 608 mmHg 59%
    12:00 +13°C° 0 mm 2 mps 608 mmHg 59%
    13:00 +13°C° 0.2 mm 2 mps 608 mmHg 62%
    14:00 +12°C° 0.2 mm 2 mps 607 mmHg 66%
    15:00 +12°C° 0.2 mm 2 mps 607 mmHg 69%
    16:00 +11°C° 0.1 mm 1 mps 607 mmHg 75%
    17:00 +10°C° 0.1 mm 1 mps 606 mmHg 81%
    18:00 +8°C° 0.1 mm 1 mps 606 mmHg 86%
    19:00 +7°C° 0 mm 0 mps 606 mmHg 86%
    20:00 +7°C° 0 mm 0 mps 606 mmHg 86%
    21:00 +6°C° 0 mm 0 mps 606 mmHg 86%
    22:00 +6°C° 0 mm 0 mps 606 mmHg 87%
    23:00 +6°C° 0 mm 0 mps 606 mmHg 87%

    21 October, Monday

    Time Temperature Precipitation Wind Pressure Humidity
    00:00 +5°C° 0 mm 0 mps 606 mmHg 87%
    01:00 +5°C° 0 mm 0 mps 605 mmHg 87%
    02:00 +5°C° 0 mm 0 mps 605 mmHg 87%
    03:00 +5°C° 0 mm 0 mps 605 mmHg 88%
    04:00 +5°C° 0 mm 0 mps 605 mmHg 88%
    05:00 +5°C° 0 mm 0 mps 605 mmHg 87%
    06:00 +4°C° 0 mm 0 mps 605 mmHg 87%
    07:00 +6°C° 0 mm 0 mps 606 mmHg 81%
    08:00 +9°C° 0 mm 1 mps 607 mmHg 75%
    09:00 +10°C° 0 mm 1 mps 608 mmHg 69%
    10:00 +11°C° 0 mm 1 mps 608 mmHg 68%
    11:00 +12°C° 0 mm 2 mps 608 mmHg 66%
    12:00 +12°C° 0 mm 2 mps 609 mmHg 65%
    13:00 +12°C° 0.1 mm 2 mps 608 mmHg 68%
    14:00 +12°C° 0.1 mm 2 mps 608 mmHg 72%
    15:00 +10°C° 0.1 mm 2 mps 608 mmHg 75%
    16:00 +10°C° 0 mm 1 mps 607 mmHg 81%
    17:00 +9°C° 0 mm 1 mps 607 mmHg 88%
    18:00 +7°C° 0 mm 0 mps 606 mmHg 94%
    19:00 +7°C° 0 mm 0 mps 606 mmHg 93%
    20:00 +7°C° 0 mm 1 mps 606 mmHg 92%
    21:00 +7°C° 0 mm 1 mps 606 mmHg 92%
    22:00 +7°C° 0 mm 1 mps 606 mmHg 90%
    23:00 +6°C° 0 mm 1 mps 606 mmHg 89%
    Show more